Météo par heure à Berne

Ce jour, 8 Mai, Samedi

Heure Température Précipitation Vent Pression Humidité
00:00 +5°C° 0 mm 1 m/s 716 mmHg 92%
01:00 +5°C° 0 mm 1 m/s 716 mmHg 92%
02:00 +4°C° 0 mm 1 m/s 716 mmHg 92%
03:00 +4°C° 0 mm 1 m/s 716 mmHg 92%
04:00 +6°C° 0 mm 1 m/s 716 mmHg 89%
05:00 +6°C° 0 mm 0 m/s 716 mmHg 86%
06:00 +7°C° 0 mm 0 m/s 716 mmHg 83%
07:00 +10°C° 0 mm 1 m/s 716 mmHg 72%
08:00 +13°C° 0 mm 1 m/s 715 mmHg 62%
09:00 +15°C° 0 mm 1 m/s 715 mmHg 52%
10:00 +16°C° 0 mm 2 m/s 715 mmHg 50%
11:00 +18°C° 0 mm 2 m/s 715 mmHg 48%
12:00 +19°C° 0 mm 2 m/s 715 mmHg 46%
13:00 +19°C° 0 mm 2 m/s 714 mmHg 46%
14:00 +20°C° 0 mm 3 m/s 714 mmHg 47%
15:00 +20°C° 0 mm 3 m/s 714 mmHg 48%
16:00 +19°C° 0 mm 2 m/s 714 mmHg 57%
17:00 +18°C° 0 mm 1 m/s 713 mmHg 66%
18:00 +16°C° 0 mm 1 m/s 713 mmHg 75%
19:00 +14°C° 0 mm 1 m/s 713 mmHg 76%
20:00 +13°C° 0 mm 1 m/s 713 mmHg 77%
21:00 +12°C° 0 mm 1 m/s 713 mmHg 78%
22:00 +11°C° 0 mm 1 m/s 713 mmHg 78%
23:00 +11°C° 0 mm 1 m/s 713 mmHg 77%

Demain, 9 Mai, Dimanche

Heure Température Précipitation Vent Pression Humidité
00:00 +10°C° 0 mm 1 m/s 713 mmHg 77%
01:00 +10°C° 0 mm 1 m/s 712 mmHg 77%
02:00 +9°C° 0 mm 1 m/s 712 mmHg 78%
03:00 +9°C° 0 mm 1 m/s 712 mmHg 78%
04:00 +10°C° 0 mm 1 m/s 711 mmHg 76%
05:00 +12°C° 0 mm 1 m/s 711 mmHg 73%
06:00 +13°C° 0 mm 1 m/s 711 mmHg 71%
07:00 +15°C° 0 mm 1 m/s 711 mmHg 64%
08:00 +19°C° 0 mm 1 m/s 711 mmHg 57%
09:00 +21°C° 0 mm 1 m/s 711 mmHg 50%
10:00 +22°C° 0 mm 1 m/s 711 mmHg 48%
11:00 +23°C° 0 mm 1 m/s 711 mmHg 46%
12:00 +25°C° 0 mm 1 m/s 710 mmHg 43%
13:00 +24°C° 0 mm 1 m/s 710 mmHg 45%
14:00 +24°C° 0 mm 2 m/s 710 mmHg 47%
15:00 +24°C° 0 mm 2 m/s 710 mmHg 49%
16:00 +21°C° 0 mm 2 m/s 709 mmHg 57%
17:00 +19°C° 0 mm 2 m/s 709 mmHg 66%
18:00 +17°C° 0 mm 2 m/s 709 mmHg 74%
19:00 +16°C° 0 mm 2 m/s 709 mmHg 75%
20:00 +15°C° 0 mm 2 m/s 709 mmHg 75%
21:00 +13°C° 0 mm 2 m/s 709 mmHg 75%
22:00 +13°C° 0 mm 2 m/s 709 mmHg 76%
23:00 +12°C° 0 mm 2 m/s 709 mmHg 77%

Après-demain, 10 Mai, Lundi

Heure Température Précipitation Vent Pression Humidité
00:00 +12°C° 0 mm 2 m/s 708 mmHg 79%
01:00 +12°C° 0 mm 2 m/s 708 mmHg 78%
02:00 +12°C° 0 mm 2 m/s 708 mmHg 78%
03:00 +12°C° 0 mm 2 m/s 708 mmHg 78%
04:00 +12°C° 0 mm 2 m/s 708 mmHg 78%
05:00 +13°C° 0 mm 1 m/s 709 mmHg 79%
06:00 +13°C° 0 mm 1 m/s 709 mmHg 79%
07:00 +14°C° 0.4 mm 1 m/s 709 mmHg 78%
08:00 +15°C° 0.4 mm 1 m/s 709 mmHg 76%
09:00 +16°C° 0.4 mm 2 m/s 710 mmHg 75%
10:00 +16°C° 0.4 mm 1 m/s 710 mmHg 79%
11:00 +15°C° 0.4 mm 1 m/s 710 mmHg 83%
12:00 +15°C° 0.4 mm 1 m/s 710 mmHg 86%
13:00 +15°C° 0.2 mm 1 m/s 709 mmHg 86%
14:00 +15°C° 0.2 mm 2 m/s 709 mmHg 86%
15:00 +15°C° 0.2 mm 2 m/s 709 mmHg 86%
16:00 +14°C° 0.1 mm 2 m/s 709 mmHg 88%
17:00 +14°C° 0.1 mm 1 m/s 708 mmHg 90%
18:00 +13°C° 0.1 mm 1 m/s 708 mmHg 91%
19:00 +12°C° 0.9 mm 1 m/s 709 mmHg 93%
20:00 +12°C° 0.9 mm 1 m/s 710 mmHg 95%
21:00 +11°C° 0.9 mm 1 m/s 710 mmHg 96%
22:00 +11°C° 0.7 mm 1 m/s 710 mmHg 97%
23:00 +11°C° 0.7 mm 1 m/s 710 mmHg 97%

11 Mai, Mardi

Heure Température Précipitation Vent Pression Humidité
00:00 +10°C° 0.7 mm 1 m/s 710 mmHg 97%
01:00 +10°C° 0.1 mm 1 m/s 709 mmHg 97%
02:00 +10°C° 0.1 mm 1 m/s 709 mmHg 97%
03:00 +10°C° 0.1 mm 1 m/s 709 mmHg 97%
04:00 +10°C° 0.3 mm 1 m/s 709 mmHg 97%
05:00 +11°C° 0.3 mm 1 m/s 708 mmHg 97%
06:00 +11°C° 0.3 mm 1 m/s 708 mmHg 96%
07:00 +11°C° 0.7 mm 1 m/s 708 mmHg 96%
08:00 +11°C° 0.7 mm 1 m/s 708 mmHg 96%
09:00 +11°C° 0.7 mm 1 m/s 708 mmHg 97%
10:00 +12°C° 1.4 mm 1 m/s 708 mmHg 95%
11:00 +12°C° 1.4 mm 1 m/s 708 mmHg 94%
12:00 +12°C° 1.4 mm 1 m/s 708 mmHg 93%
13:00 +12°C° 1.5 mm 1 m/s 708 mmHg 94%
14:00 +11°C° 1.5 mm 1 m/s 708 mmHg 94%
15:00 +11°C° 1.5 mm 1 m/s 708 mmHg 95%
16:00 +11°C° 1.4 mm 1 m/s 709 mmHg 96%
17:00 +10°C° 1.4 mm 1 m/s 709 mmHg 96%
18:00 +10°C° 1.4 mm 1 m/s 710 mmHg 96%
19:00 +10°C° 0.2 mm 1 m/s 710 mmHg 96%
20:00 +10°C° 0.2 mm 1 m/s 710 mmHg 96%
21:00 +10°C° 0.2 mm 1 m/s 711 mmHg 96%
22:00 +8°C° 0.9 mm 2 m/s 711 mmHg 96%
23:00 +8°C° 0.9 mm 3 m/s 711 mmHg 97%

12 Mai, Mercredi

Heure Température Précipitation Vent Pression Humidité
00:00 +8°C° 0.9 mm 3 m/s 711 mmHg 97%
01:00 +8°C° 0.9 mm 3 m/s 712 mmHg 97%
02:00 +8°C° 0.9 mm 2 m/s 712 mmHg 97%
03:00 +7°C° 0.9 mm 2 m/s 712 mmHg 97%
04:00 +7°C° 0.4 mm 2 m/s 713 mmHg 97%
05:00 +7°C° 0.4 mm 2 m/s 713 mmHg 97%
06:00 +7°C° 0.4 mm 2 m/s 713 mmHg 97%
07:00 +8°C° 0.2 mm 2 m/s 713 mmHg 93%
08:00 +9°C° 0.2 mm 1 m/s 713 mmHg 90%
09:00 +10°C° 0.2 mm 1 m/s 713 mmHg 86%
10:00 +11°C° 0.2 mm 1 m/s 713 mmHg 80%
11:00 +12°C° 0.2 mm 1 m/s 712 mmHg 73%
12:00 +13°C° 0.2 mm 1 m/s 712 mmHg 66%
13:00 +13°C° 0.2 mm 1 m/s 712 mmHg 67%
14:00 +13°C° 0.2 mm 1 m/s 712 mmHg 68%
15:00 +13°C° 0.2 mm 2 m/s 711 mmHg 70%
16:00 +12°C° 0.1 mm 1 m/s 711 mmHg 74%
17:00 +12°C° 0.1 mm 1 m/s 711 mmHg 78%
18:00 +11°C° 0.1 mm 1 m/s 712 mmHg 83%
19:00 +10°C° 0 mm 1 m/s 712 mmHg 86%
20:00 +8°C° 0 mm 1 m/s 712 mmHg 90%
21:00 +6°C° 0 mm 0 m/s 712 mmHg 93%
22:00 +6°C° 0 mm 0 m/s 712 mmHg 93%
23:00 +5°C° 0 mm 0 m/s 712 mmHg 93%

13 Mai, Jeudi

Heure Température Précipitation Vent Pression Humidité
00:00 +5°C° 0 mm 0 m/s 712 mmHg 93%
01:00 +6°C° 0 mm 1 m/s 712 mmHg 93%
02:00 +5°C° 0 mm 1 m/s 712 mmHg 92%
03:00 +5°C° 0 mm 1 m/s 712 mmHg 92%
04:00 +5°C° 0 mm 0 m/s 712 mmHg 90%
05:00 +6°C° 0 mm 0 m/s 711 mmHg 87%
06:00 +7°C° 0 mm 0 m/s 711 mmHg 85%
07:00 +9°C° 0 mm 0 m/s 711 mmHg 75%
08:00 +12°C° 0 mm 1 m/s 711 mmHg 66%
09:00 +14°C° 0 mm 1 m/s 711 mmHg 57%
10:00 +15°C° 0 mm 1 m/s 710 mmHg 54%
11:00 +15°C° 0 mm 1 m/s 710 mmHg 51%
12:00 +16°C° 0 mm 2 m/s 710 mmHg 48%
13:00 +16°C° 0.1 mm 2 m/s 709 mmHg 52%
14:00 +15°C° 0.1 mm 2 m/s 709 mmHg 55%
15:00 +15°C° 0.1 mm 2 m/s 709 mmHg 59%
16:00 +14°C° 0.2 mm 2 m/s 709 mmHg 67%
17:00 +13°C° 0.2 mm 1 m/s 709 mmHg 74%
18:00 +12°C° 0.2 mm 1 m/s 709 mmHg 82%
19:00 +11°C° 0 mm 1 m/s 709 mmHg 85%
20:00 +9°C° 0 mm 1 m/s 709 mmHg 88%
21:00 +8°C° 0 mm 1 m/s 710 mmHg 92%
22:00 +8°C° 0 mm 1 m/s 710 mmHg 92%
23:00 +7°C° 0 mm 1 m/s 710 mmHg 92%
Voir plus

Nous avons besoin de votre consentement

Meteoprog et ses fournisseurs de services peuvent stocker et accéder à des données personnelles telles que des cookies, des identifiants d'appareils ou d'autres technologies similaires sur votre appareil et traiter ces données pour personnaliser le contenu et les publicités, ainsi que pour fournir des fonctionnalités de médias sociaux et analyser le trafic.

  • Stocker et/ou accéder à des informations sur votre appareil

    Des cookies, des identifiants d'appareils ou d'autres informations peuvent être stockés ou accessibles sur votre appareil aux fins indiquées ci-dessus.

  • Annonces et contenus personnalisés, mesure des annonces et des contenus, connaissance de l'audience et développement de produits

    Les annonces et le contenu peuvent être personnalisés en fonction d'un profil. D'autres données peuvent être ajoutées pour mieux personnaliser les annonces et le contenu. Les performances des publicités et du contenu peuvent être mesurées. Il est possible d'obtenir des informations sur le public qui a vu les publicités et le contenu. Ces données peuvent être utilisées pour développer ou améliorer l'expérience de l'utilisateur, les systèmes et les logiciels.

En cliquant sur "J'accepte", vous autorisez l'utilisation de cookies, des identifiants d'appareils, des balises web ou d'autres technologies similaires. Vos paramètres peuvent être modifiés dans le navigateur de votre appareil.

Dans certains cas, des intérêts légitimes peuvent être invoqués plutôt qu'un consentement. Vous pouvez en savoir plus à ce sujet dans notre Politique de confidentialité et de cookies.